STARLINK-2652 (48451 NORAD) Tracking and Keplerian Element Data

This shows tracking and keplerian element data for the satellite.

Feedback or suggestion? Click here.




ElementValue
Catalog48451
NameSTARLINK-2652
Epoch Orbit366
Epoch Day214.91667824
Epoch Year2021
RAAN162.8551
Inclination53.0489
Eccentricity0.0001312
Argument of Perigee67.0388
Mean Anonmoly289.8847
Mean Motion15.21680752
Decay Rate-0.00835809
L11 48451U 21040Z 21214.91667824 -.00835809 00000-0 -39575-1 0 9997
L22 48451 53.0489 162.8551 0001312 67.0388 289.8847 15.21680752 3668

Live tracking and technical data element details for STARLINK-2652 (NORAD 48451). STARLINK-2652 can be tracked NOW for your location showing map with azimuth and elevation plus other details from your city location.

Track the satellite on the map from your city or location and see movement details for azimuth, elevation, latitude, longitude, range, height, and movement on the map or in text.







IsCatalogInMostPopularTable: catalog: 48451, numindb: 26
Update: records affected: 1



GetName: 48451 STARLINK-2652

Hit Count: updated at: Tue, 03 Aug 2021 23:57:54 GMT